sat.trackr.live / text

‹ back to catalog

STARLINK-32647

NORAD 62200 · 2024-229J

PAYLOAD ACTIVE UNKNOWN

§ Identity

Operator
Country
US
Launch date
2024-12-04
Launch site
AFETR
Launch vehicle
Mass (kg)
RCS (m²)

Purposes: comms

External: N2YO · Heavens-Above · Gunter

§ Orbital elements

Epoch: 2026-05-25T05:08:01.512096Z

Period
94.26 min
Inclination
43.0009°
Eccentricity
0.0001226
Mean motion
15.27613584 rev/d
Perigee alt
482.1 km
Apogee alt
483.8 km
Semi-major
6,861.1 km
B*
6.1413e-4
RAAN
198.6433°
Arg perigee
259.4633°
Mean anomaly
100.6081°
Rev number
8,226

§ Raw data

STARLINK-326471 62200U 24229J   26145.21390639  .00016693  00000+0  61413-3 0  99922 62200  43.0009 198.6433 0001226 259.4633 100.6081 15.27613584 82261

JSON: /api/v1/satellites/62200 · /tle

For live sub-satellite position, see the globe view (requires WebGL).

§ Visibility from observer

Set your observer location to see the next 7 days of passes ≥ 10°. The values pass through the URL so the page stays shareable.

No JS? Fill the form by hand. The geolocation button needs JavaScript.